Regional Weather Roundup
Issued by NWS Cleveland, OH

Home | Current Version | Previous Version | Graphics & Text | Print | Product List | Glossary On
Versions: 1 2 3 4 5 6 7 8 9 10 11 12 13 14 15 16 17 18 19 20 21 22 23 24 25 26 27 28 29 30 31 32 33 34 35 36 37 38 39 40 41 42 43 44 45 46 47 48 49 50
000
ASUS41 KCLE 031210
RWRCLE
OHIO REGIONAL WEATHER ROUNDUP
NATIONAL WEATHER SERVICE WILMINGTON, OH
800 AM EDT SUN MAY 03 2015

NOTE: "FAIR" INDICATES FEW OR NO CLOUDS BELOW 12,000 FEET WITH NO
SIGNIFICANT WEATHER AND/OR OBSTRUCTIONS TO VISIBILITY.

OHZ001>008-015>018-024>027-034-035-043-044-031300-
   NORTHWEST OHIO

CITY           SKY/WX    TMP DP  RH WIND       PRES   REMARKS
DEFIANCE       MOSUNNY   55  46  71 S5        30.08R
FINDLAY        MOSUNNY   56  46  69 S6        30.08R
TOLEDO EXPRESS SUNNY     54  46  74 CALM      30.07R
TOLEDO EXEC    SUNNY     56  43  61 SW8       30.08R
LIMA           PTSUNNY   54  44  69 S9        30.09R
$$

OHZ009>014-019>023-028>033-038-089-031300-
   NORTHEAST OHIO

CITY           SKY/WX    TMP DP  RH WIND       PRES   REMARKS
CLE-HOPKINS    MOSUNNY   57  43  59 SW7       30.11R
CLE-LAKEFRONT  SUNNY     59  42  53 S9        30.08R
CUY CO. ARPT   MOSUNNY   64  43  45 SW7       30.09R
LORAIN-ELYRIA  SUNNY     54  44  69 SW6       30.09R
ASHTABULA      SUNNY     54  42  64 S3        30.10R
AKRON-CANTON   MOSUNNY   55  45  68 S3        30.11R
WOOSTER        SUNNY     52  43  71 CALM      30.12R
MANSFIELD      MOSUNNY   57  46  66 SW6       30.11R
YOUNGSTOWN     MOSUNNY   57  40  52 SW3       30.11R
$$

OHZ042-051>053-060>062-070>072-077>081-031300-
  SOUTHWEST OHIO

CITY           SKY/WX    TMP DP  RH WIND       PRES   REMARKS
CINC-COVINGTON PTSUNNY   53  49  86 CALM      30.12R
CINC-LUNKEN    PTSUNNY   49  49 100 CALM      30.14R
HAMILTON       PTSUNNY   51  49  92 CALM      30.13R
DAYTON         PTSUNNY   58  47  66 S5        30.12R
WRIGHT-PAT AFB PTSUNNY   51  49  90 CALM      30.12R
DAYTON GENERAL PTSUNNY   55  45  68 CALM      30.11R
WILMINGTON     MOSUNNY   52  42  69 SW3       30.12R
$$

OHZ036-037-039>041-045>050-054>059-063>069-073>076-082>088-031300-
  CENTRAL AND SOUTHEAST OHIO

CITY           SKY/WX    TMP DP  RH WIND       PRES   REMARKS
COLUMBUS       PTSUNNY   53  47  79 CALM      30.12R
OSU AIRPORT    PTSUNNY   55  46  71 CALM      30.11R
BOLTON FIELD   MOSUNNY   54  48  82 CALM      30.12R
RICKENBACK AFB PTSUNNY   52  46  80 CALM      30.11S
NEWARK         MOSUNNY   50  46  86 CALM      30.12R
MARION         MOSUNNY   53  44  71 S7        30.11R
LANCASTER      MOSUNNY   52  47  83 CALM      30.13R
ZANESVILLE     MOSUNNY   47  42  83 CALM      30.13R
NEW PHILLY     SUNNY     50  44  80 SE5       30.13R HAZE
$$



USA.gov is the U.S. government's official web portal to all federal, state and local government web resources and services.